Погода в Ноглики

Погода в Ноглики : погода сейчас, прогноз погоды и архив. Всё, что Вы хотите узнать о погоде в Ноглики!

Хотите узнать прогноз погоды в Ноглики? Тогда Вам сюда: Погода в Ноглики

Поиск расширенной информации на нашем сайте:

Другие новости

Новости СМИ2

Главная страница сайта

Новости сайта

02.10.2013

Напоминаем, что на нашем новом сайте вы можете получить высокодетализированные прогнозы погоды по пунктам России, СНГ и мира (включающие важные для авиации метеовеличины, такие как направление и скорость ветра, видимость, явления погоды, количество и форма облачности, нижняя и верхняя граница облачности), а также ознакомиться с разнообразными материалами по авиационной метеорологии и подборкой полезных ссылок на эту тему.

Сайт Метеоцентр.Азия посвящён разработке технологий оптимизации авиаметеорологического обслуживания, включая проектирование и перспективное создание нескольких автоматизированных авиаметеорологических систем:
- система выпуска высокодетальных прогностических карт явлений погоды для нижнего воздушного пространства по России и ближнему зарубежью;
- система верификации прогнозов TAF (выпускаемых синоптиками официальных АМСГ РФ и ближнего зарубежья) и AUTOTAF (выпускаемых сайтом Метеоцентр.Азия) - выявление ошибок, онлайн-сопоставление с фактической погодой METAR, автоматическое внесение коррективов в прогнозы при резком отклонении фактической погоды от прогноза, подсчёт оправдываемости прогнозов по элементам и в целом;
- система обработки, анализа и отображения авиаметеорологической информации для применения провайдерами метеорологической информации.

Рекомендуем: подбор тура пегас тур

Погода в Ноглики - сегодня

Время (UTC), дата Ветер
(°,м/с) 
Видим.   Явления Облачность Т
(°С)
Тd
(°С)
f(%) Тe
(°С)
Pmin
(гПа)
dP
(гПа)
Po
(мм)
O2
(г/м3)
Тmin Tmax R s Состояние
почвы
18 20.02.17 310 (СЗ) 5-10{11}  10 км  слаб. ливневой снег  10/10 660 м кучево-дожд. 
[Cb cap]
-12.6 -16.9 70 -18  1005.6  750  318           
21 20.02.17 310 (СЗ) 4-9{10}  10 км  слаб. ливневой снег  10/10 700 м кучево-дожд. 
[Cb cap]
-12.2 -16.6 70 -16  1006.7  1.1  751  318  -13.5    0.2  67  равномерный
сухой снег
100% 
00 21.02.17 310 (СЗ) 5-10{12}  20000 м  позёмок{ливн. осадки}  9/3 600 м кучево-дожд., верхняя 
[Cb cap|Ci sp]
-10.9 -16.2 65 -16  1008.1  1.5  752  317           
03 21.02.17 340 (С) 7-13{13}  20000 м  позёмок  9/4 1000 м кучево-дожд., верхняя 
[Cb cap|Ci sp]
-8.8 -15.4 59 -14  1008.8  0.7  753  315           
06 21.02.17 310 (СЗ) 5-11{13}  20000 м  позёмок  10/8 900 м кучево-дожд., верхняя 
[Cb cap|Ci sp]
-8.6 -17 51 -13  1010.5  1.7  754  315           
09 21.02.17 320 (СЗ) 4-9{11}  10 км    9/3 600 м верхняя 
[Sc|Ci sp]
-10.1 -18.6 50 -14  1013.3  2.8  756  318    -8.2  0.0     
12 21.02.17 300 (СЗ) 2-6{09}  10 км    ясно 
-12.9 -20.1 55 -15  1014.4  757  322           
15 21.02.17 280 (З) 3-6{06}  10 км    ясно 
-14.7 -21.8 55 -18  1014.7  0.3  757  324           
18 21.02.17 260 (З) 2-4{06}  10 км    ясно 
-17 -23.9 55 -19  1014.5  -0.3  757  327           
21 21.02.17 270 (З) 3-4{05}  10 км    ясно 
-18.3 -24.2 60 -22  1014.8  0.3  757  329  -18.4      67  равномерный
сухой снег
100% 
00 22.02.17 280 (З) 3-5{06}  20000 м    ясно 
-15 -22 55 -19  1014.6  -0.1  757  324           
03 22.02.17 300 (СЗ) 4-8{08}  20000 м    ясно 
-8.2 -20.1 38 -12  1012.7  -1.8  756  315           
06 22.02.17 300 (СЗ) 4-8{10}  20000 м    ясно 
-7.2 -19.6 36 -11  1011.7  -1  755  314           
09 22.02.17 290 (З) 2-3{08}  10 км    1/0 верхняя 
[Ci sp]
-11.7 -21.3 45 -14  1011.9  0.1  755  319    -7.2       
12 22.02.17 260 (З) 1-2{03}  10 км    ясно 
-15.3 -22.3 55 -15  1011.8  -0.1  755  324           
15 22.02.17 250 (З) 1-2{02}  10 км    ясно 
-16.3 -20.5 70 -16  1011  -0.8  754  325           
18 22.02.17 260 (З) 2-3{03}  10 км    ясно 
-20.4 -22.3 85 -23  1010.6  -0.5  754  330           
21 22.02.17 250 (З) 2-2{03}  10 км    1/0 верхняя 
[Ci fib]
-22.2 -23.5 89 -25  1009.6  -1.1  753  332  -22.4      65  равномерный
сухой снег
100% 
00 23.02.17 220 (ЮЗ) 1-1{03}  20000 м    4/0 верхняя 
[Ci sp]
-17.8 -19.7 85 -18  1009.5  753  326  -23.6         
03 23.02.17 080 (В) 1-2{02}  20000 м    4/0 верхняя 
[Ci sp]
-10.2 -21.2 40 -10  1007.3  -2  752  316           
06 23.02.17 070 (В) 3-5{05}  20000 м    4/0 средняя, верхняя 
[Ac trans|Ci fib]
-11 -20.6 45 -14  1006.1  -1.2  751  317           
09 23.02.17 тихо () {05}  10 км    ясно 
-14.4 -21.5 55 -14  1006.8  0.6  751  321    -9.7       
12 23.02.17 тихо () {02}  10 км    ясно 
-19.8 -22.4 80 -20  1007.2  0.3  752  328           
15 23.02.17 310 (СЗ) 1-2{02}  10 км    ясно 
-21.2 -22.4 90 -22  1006.9  -0.3  751  330           
18 23.02.17 250 (З) 3-4{03}  10 км    ясно 
-25.2 -26.4 90 -30  1006.4  -0.6  751  335           
Время (UTC), дата Ветер
(°,м/с) 
Видим.   Явления Облачность Т
(°С)
Тd
(°С)
f(%) Тe
(°С)
Pmin
(гПа)
dP
(гПа)
Po
(мм)
O2
(г/м3)
Тmin Tmax R s Состояние
почвы

Для получения пояснительной информации подведите курсор к названию столбца.

ПОГОДА в Ноглики - архив

Всё, что Вы хотите узнать о погоде в Ноглики - удобно и подробно!

Выберите нужную дату (начиная с 1 января 2015* года) и нажмите кнопку "Найти".
Будут отображены архивные сводки погоды по пункту Ноглики, начиная с указанной даты.


Отображать данные в формате CSV (для использования в таблицах Excel)


Внимание! Наш архив погоды предназначен исключительно для личного некоммерческого использования в познавательных целях. Если Вам необходимы официальные справки о состоянии погоды (для производственных, юридических, коммерческих и т.п. целей), обращайтесь в органы Росгидромета.

*Примечание: данная дата относится к архиву по метеостанциям СССР (Россия, СНГ, Балтия).
Архив по метеостанциям Зарубежной Европы и Азии (кроме Китая) хранится 10 дней, по другим регионам земного шара (Китай, Африка, Америка, Австралия, Океания) - 1 день.

Ноглики - район местоположения метеостанции


Название, широта, долгота, высота метеостанции:
Ноглики 51.9°ш. 143.1°д. 34 м над ур. моря [Российская Федерация]

Дополнительная информация

В oтличие oт бoльшинства пoгoдных сайтoв мы публикуем пoдрoбную метеoинфoрмацию в детальнoм прoфессиoнальнoм фoрмате.

Характеристики температуры и влажнoсти вoздуха измеряются на высoте 2 м в тени вдали oт зданий и деревьев.
Скoрoсть ветра измеряется на высoте 10 м (на урoвне рoста челoвека скoрoсть ветра ниже в 1.5-2 раза). Если метеoстанция нахoдится в гoрoде или в лесу, тo скoрoсть ветра занижена на 2-4 м/с пo сравнению с oткрытым местoм. Скoрoсть ветра над акватoриями крупных рек и oзёр, а также на вершинах хoлмoв на 2-5 м/с выше, чем в oбычных услoвиях.
Атмoсфернoе давление в разных тoчках местнoсти мoжет значительнo oтличаться oт давления на метеoстанции, в зависимoсти oт услoвий рельефа (при пoдъёме на 10 м давление пoнижается примернo на 1 мм рт.ст.).